ECMWFNIL_250_spd_096.txt.gz
Wind_Speed
52 51 50 50 50 49 47 45 44 43 44 45 47 49 50 52 54 53 47 39 36 36 36 38 39 39 37 36 35 36 37 38 40 46 51 50 46 44 44 41 39 39
51 51 50 50 50 49 48 46 44 44 44 45 45 47 49 50 51 54 54 47 41 40 41 41 40 37 36 34 33 34 35 35 37 41 47 54 53 48 45 41 39 39
51 51 51 50 50 49 48 47 46 45 45 45 45 45 47 48 48 51 56 55 52 46 41 40 41 38 34 32 31 32 33 33 35 38 41 51 55 52 48 44 39 39
51 51 51 50 50 50 49 49 47 46 46 45 44 43 43 44 45 48 53 56 58 56 47 39 39 39 34 31 32 32 32 31 33 35 38 45 51 51 49 47 44 42
52 51 51 51 50 50 50 50 49 47 46 45 44 43 41 41 41 44 50 53 54 58 58 51 43 39 34 33 35 33 31 30 32 36 39 43 47 48 48 48 46 46
52 51 51 51 50 50 51 50 49 48 47 46 44 43 42 42 40 40 44 50 49 50 57 58 49 41 36 37 38 33 29 29 32 36 37 39 44 49 52 52 51 51
52 51 51 51 51 51 51 50 48 48 48 47 45 43 42 42 40 38 38 44 46 45 50 56 53 43 37 38 37 33 31 31 32 34 34 37 43 47 52 57 60 59
52 52 52 51 51 51 51 49 48 48 48 47 45 43 42 41 39 37 35 39 42 42 46 53 55 46 38 37 35 33 33 33 33 33 35 40 46 48 49 53 59 62
52 52 52 52 52 51 51 49 48 48 48 48 45 43 42 40 37 34 34 36 38 39 42 47 51 48 43 40 38 36 35 35 34 33 35 39 43 46 48 50 54 58
53 53 53 52 52 51 51 49 48 47 48 48 45 42 41 39 35 32 32 34 35 37 41 46 48 48 44 41 42 40 37 36 35 33 33 36 38 41 44 48 51 55
53 53 53 52 52 51 51 49 47 46 47 48 45 42 39 37 33 31 31 33 33 36 43 48 48 46 42 40 40 39 37 37 35 33 33 34 36 39 42 46 50 54
54 54 53 52 52 51 51 50 47 46 46 47 45 41 38 35 31 29 31 32 34 38 46 49 47 45 44 42 41 39 37 38 37 35 34 33 34 37 40 44 49 54
54 54 53 53 52 51 52 50 47 45 45 45 45 41 37 34 30 29 30 32 35 41 49 51 47 45 45 45 44 41 39 38 37 36 35 35 35 35 37 41 47 53
55 54 54 53 52 52 52 50 47 45 44 43 43 41 37 33 29 28 29 32 36 43 51 53 48 45 46 46 45 43 41 38 37 37 36 37 36 35 35 39 45 52
56 55 54 53 53 52 52 51 48 46 44 42 42 41 38 33 29 28 29 32 38 45 53 54 48 45 46 47 47 45 43 41 40 40 39 38 36 34 36 39 42 48
57 56 55 54 53 53 53 52 49 47 45 41 40 40 38 33 29 28 30 33 40 47 53 52 48 46 46 47 47 46 44 43 42 41 40 38 35 35 38 41 42 44
58 57 56 55 54 53 53 53 51 48 46 42 39 38 38 35 30 29 31 35 42 49 52 52 49 47 47 47 47 46 44 44 43 43 41 38 36 37 40 44 45 46
59 58 57 56 55 54 53 54 52 50 48 44 39 37 37 36 31 30 31 36 43 49 51 52 51 49 48 47 46 45 44 46 47 47 45 41 38 39 42 44 46 48
60 59 59 57 56 55 54 54 54 52 50 46 41 37 36 36 33 31 32 36 42 49 52 52 51 49 47 45 46 46 46 49 51 50 49 46 43 41 42 44 46 48
61 60 60 59 57 56 55 55 55 54 51 48 44 39 35 35 34 33 34 36 41 49 53 52 48 46 44 43 47 49 48 50 52 51 50 50 47 44 44 45 47 48
62 62 61 60 59 58 57 57 57 56 53 49 46 41 36 35 35 34 35 37 40 48 55 53 47 45 44 44 47 50 50 50 51 51 51 52 50 49 48 47 47 49
64 63 63 62 61 60 60 59 58 57 55 51 47 43 38 35 35 36 37 39 41 48 56 56 49 46 47 47 46 48 51 52 51 50 52 52 51 50 50 49 49 51
65 65 64 64 64 63 62 60 60 59 57 53 49 46 41 36 36 37 39 41 42 47 56 59 53 48 48 49 48 48 51 54 53 51 52 52 51 50 49 49 51 52
67 67 66 66 66 65 64 62 61 60 59 56 51 47 44 39 36 37 39 43 44 47 55 60 58 52 49 49 51 50 51 54 55 53 52 52 51 50 49 48 49 51
68 68 68 68 68 67 66 65 63 62 60 57 53 49 46 41 38 38 40 44 47 49 54 59 61 58 53 51 53 53 53 56 57 55 54 53 51 50 50 48 47 49
70 70 70 69 69 69 68 67 66 64 61 59 55 50 47 43 39 38 40 43 48 51 54 58 61 62 60 56 54 55 56 58 59 58 55 54 52 52 52 51 50 50

ECMWFNIL_250_spd_102.txt.gz
Wind_Speed
51 50 49 49 48 49 49 50 51 51 51 50 51 50 50 51 52 54 55 56 57 57 58 58 57 56 54 51 47 46 46 45 45 46 45 46 47 46 44 42 38 37
48 48 48 48 48 49 49 50 50 50 50 50 50 50 51 52 53 55 55 56 57 57 58 58 57 57 55 53 49 47 46 46 45 45 46 48 50 51 49 45 40 37
47 47 47 47 48 49 49 49 49 48 48 48 50 51 52 53 54 55 55 56 57 58 58 57 57 57 57 54 51 48 46 46 45 45 46 49 51 53 53 50 45 40
48 48 48 49 49 50 50 51 50 49 49 50 51 52 53 53 54 54 55 56 57 58 58 57 57 57 57 56 53 49 46 44 44 45 46 48 50 53 54 52 48 44
51 51 51 51 51 52 52 53 52 51 51 52 53 53 53 54 54 55 55 55 57 57 57 57 57 57 57 57 54 50 46 43 42 43 45 47 49 53 54 51 48 46
51 52 54 54 55 55 55 55 55 54 54 54 54 54 54 55 55 55 55 56 56 56 56 57 57 58 57 57 55 52 47 42 39 41 45 47 49 53 54 50 48 47
49 52 54 56 57 58 58 57 57 56 55 55 55 56 56 56 56 55 55 55 55 55 55 56 57 58 57 56 56 53 48 43 39 38 43 47 49 53 53 50 49 50
50 51 52 54 56 58 59 59 59 58 57 56 57 57 57 57 57 56 56 55 55 54 54 55 56 57 56 55 55 53 49 44 39 37 40 45 49 52 53 50 50 51
49 50 51 52 53 55 57 59 60 60 59 58 58 58 58 57 56 56 56 55 54 53 53 54 55 56 56 55 54 53 50 45 41 38 37 41 48 52 52 50 50 50
48 48 48 50 51 52 54 56 58 59 60 59 58 58 57 56 56 56 55 55 53 52 52 53 54 54 55 54 53 52 50 46 42 39 35 37 45 52 53 51 51 51
49 48 48 49 50 51 52 54 55 57 58 58 57 57 56 55 55 55 55 54 53 51 51 51 52 53 53 53 52 51 49 47 43 39 34 34 41 51 54 52 52 52
50 50 50 50 50 51 52 52 53 54 55 55 55 55 55 55 55 54 54 54 52 51 51 51 51 51 51 52 51 50 49 46 43 39 33 32 37 48 55 53 52 53
50 50 50 50 50 50 51 51 51 52 53 54 55 55 55 55 55 54 53 53 52 51 51 51 50 50 50 50 50 49 48 46 44 39 33 31 33 45 57 57 54 54
51 50 50 49 49 49 50 50 51 52 53 53 54 54 55 55 55 54 54 53 52 51 51 51 50 49 49 49 49 48 47 46 43 39 34 31 31 40 55 61 57 55
51 51 50 50 49 49 49 50 51 52 52 53 54 54 55 55 55 55 54 53 52 51 51 51 50 49 48 47 47 47 46 45 43 39 35 31 31 36 49 60 60 55
52 52 52 52 52 52 52 52 52 52 53 54 55 55 55 55 55 55 55 54 53 52 52 52 50 49 48 47 46 46 45 44 42 39 35 33 32 35 44 55 59 57
53 54 54 54 54 55 54 54 54 54 54 55 55 55 55 55 55 56 56 55 53 53 53 53 51 50 48 47 46 45 45 44 42 40 36 34 34 36 42 49 54 56
54 55 56 56 56 56 56 56 56 55 56 56 56 57 57 56 57 57 56 55 55 54 53 53 52 51 50 48 46 45 44 43 42 40 37 35 37 39 42 46 49 51
57 58 58 58 58 58 58 58 58 57 57 57 57 58 58 58 58 57 57 56 56 55 55 54 53 52 51 50 47 45 44 43 42 40 38 36 39 42 44 47 49 50
61 61 60 59 59 59 59 59 59 59 59 59 59 59 59 59 59 58 58 58 57 57 57 56 55 54 53 52 50 47 45 43 42 40 38 37 40 46 47 49 51 52
65 64 62 60 60 59 59 59 60 60 60 61 61 60 60 60 60 59 59 59 58 58 58 58 57 56 55 54 52 49 46 44 42 40 39 38 41 48 51 51 53 54
65 64 62 61 60 60 60 59 60 60 60 61 61 61 62 62 61 61 60 60 60 60 59 59 59 58 57 56 54 51 49 46 43 41 39 39 41 48 53 54 55 56
64 63 61 61 61 61 60 60 60 60 60 60 61 61 62 62 62 62 61 61 62 62 61 60 59 59 59 58 56 54 52 50 46 43 40 39 41 47 54 57 57 57
64 63 62 61 60 60 60 60 60 60 60 60 60 61 62 62 63 63 62 62 62 63 63 62 60 60 60 59 57 56 54 53 50 46 42 40 41 45 54 58 58 59
64 64 63 61 60 60 60 60 60 60 60 60 60 61 62 62 63 63 63 63 63 64 65 63 62 61 61 60 59 58 57 56 54 50 45 42 41 44 52 59 59 59
65 64 64 63 62 61 61 60 61 61 61 60 60 61 62 62 63 63 63 63 63 64 65 65 63 62 61 61 60 60 59 58 57 54 50 45 43 44 50 59 62 61

ECMWFNIL_250_spd_105.txt.gz
Wind_Speed
51 51 51 51 52 53 53 53 53 53 53 52 49 47 46 46 46 46 46 46 47 47 48 48 50 51 52 53 54 54 53 53 52 51 49 47 45 43 40 38 38 42
52 52 52 52 53 54 53 53 54 53 52 50 48 47 47 46 47 47 48 48 48 49 50 50 51 51 52 54 55 55 54 54 53 52 50 47 45 44 42 38 37 40
51 52 52 52 53 53 53 53 53 52 51 50 49 49 48 48 49 49 50 50 51 51 52 52 52 52 52 54 55 56 55 54 53 52 51 48 46 44 42 40 37 37
50 51 52 52 53 53 52 50 50 49 49 50 51 51 51 51 52 52 53 53 53 53 53 53 53 53 53 54 55 55 56 55 53 52 51 49 46 44 42 40 37 36
51 51 51 51 51 50 49 48 47 46 47 48 50 52 53 53 54 55 55 56 56 55 55 54 53 53 53 54 54 54 55 55 53 52 51 49 46 44 42 39 38 36
50 50 50 50 49 48 47 46 46 46 46 47 49 50 51 52 53 54 55 56 56 56 56 55 54 53 53 53 52 53 54 54 54 52 50 49 48 45 42 40 38 37
50 50 49 48 47 47 47 46 46 47 47 47 47 48 49 49 50 51 52 54 55 55 55 55 55 54 53 51 50 51 53 53 53 52 51 49 49 46 43 40 38 37
50 50 49 48 48 48 48 47 48 48 47 46 46 46 47 47 48 49 50 51 52 53 54 54 54 53 51 50 49 50 51 52 52 52 51 49 49 48 44 40 38 37
51 51 50 50 50 50 49 49 49 48 47 46 46 46 47 47 48 49 50 51 51 52 53 53 52 51 50 49 49 49 50 51 50 50 50 49 48 48 46 41 37 36
52 52 51 52 52 51 50 49 49 48 47 47 47 48 48 49 49 50 50 51 51 51 52 52 52 51 51 50 49 48 49 50 50 49 49 49 48 48 47 43 37 35
52 53 53 53 53 52 51 50 49 49 48 48 49 49 49 49 49 49 50 50 50 50 51 52 52 52 51 50 49 48 49 49 49 48 48 48 48 47 47 44 39 34
55 55 55 55 54 53 52 51 51 50 50 50 50 50 50 49 48 48 48 49 49 50 51 52 52 52 52 51 50 49 48 49 49 47 46 47 47 46 45 44 40 34
56 57 56 56 55 54 53 53 52 52 52 51 51 50 50 50 49 48 48 49 49 50 51 52 53 53 52 52 51 50 49 48 48 47 46 45 46 45 44 43 41 35
56 56 56 55 55 54 54 54 54 54 54 53 52 52 51 51 51 50 50 51 51 52 52 53 53 53 53 53 52 51 50 49 48 47 46 44 44 44 43 42 40 37
54 55 55 55 55 55 55 55 55 55 55 54 54 53 53 53 53 52 53 53 53 53 54 54 55 55 54 54 53 53 51 49 48 48 46 44 43 43 42 40 39 37
54 55 55 55 55 55 55 55 55 56 56 55 55 55 55 55 55 54 54 54 54 55 55 55 55 55 55 55 54 54 53 50 49 48 47 45 44 43 42 40 38 36
55 55 55 55 55 55 56 56 56 57 57 57 57 57 57 57 57 57 56 56 56 56 56 56 56 56 56 55 55 55 54 52 50 49 48 46 44 43 42 40 37 36
54 55 55 55 56 56 57 57 58 58 58 59 59 59 60 60 60 59 59 58 57 57 57 57 57 57 57 56 56 56 55 54 52 51 50 48 45 44 42 40 38 35
54 55 56 57 57 58 58 59 59 59 60 60 61 61 62 62 61 60 60 59 59 58 58 57 57 58 58 57 57 57 56 56 54 53 52 49 47 45 43 41 39 36
56 57 58 58 58 58 59 60 61 62 63 63 63 63 62 62 62 61 60 60 60 60 60 59 59 59 59 58 58 57 57 56 55 54 53 51 48 46 44 43 40 37
57 58 58 59 60 61 62 63 64 65 65 65 64 64 63 62 61 61 61 61 61 61 61 60 60 60 60 60 60 59 58 57 56 55 54 52 50 48 46 44 42 39
58 59 60 61 62 63 64 65 66 67 67 66 66 65 65 63 62 61 61 61 61 61 61 61 61 61 62 61 61 61 60 59 58 57 56 54 52 50 49 46 44 41
60 61 62 64 64 65 66 67 68 69 68 68 67 66 65 64 64 63 62 61 61 61 62 62 62 62 62 62 62 62 61 61 60 59 57 55 53 52 51 48 45 43
62 63 64 65 66 68 69 69 70 70 70 69 68 67 67 66 65 64 63 62 62 62 62 63 63 62 63 63 63 63 62 61 61 60 59 57 55 54 52 50 47 44
64 65 66 67 68 69 70 71 71 71 71 70 69 68 67 66 65 64 63 63 63 63 63 63 64 64 64 64 64 64 63 63 62 61 60 59 57 55 54 52 50 47
65 66 67 68 69 69 71 71 72 72 71 71 70 68 67 66 65 64 64 64 63 64 64 64 64 65 65 65 65 65 64 64 63 62 61 59 57 56 54 54 52 50

ECMWFNIL_250_spd_108.txt.gz
Wind_Speed
51 51 51 50 50 50 50 49 48 48 49 49 49 50 50 51 52 52 51 51 51 51 50 49 49 48 48 48 48 48 49 49 50 50 50 49 48 47 46 45 45 45
51 50 50 50 50 50 49 49 49 49 50 50 50 51 51 52 52 51 51 51 50 49 49 50 50 50 50 51 51 51 51 51 51 51 50 49 48 47 45 44 45 45
50 50 49 50 50 50 50 50 50 50 50 50 50 51 51 51 51 50 49 48 47 47 48 49 49 49 50 50 51 51 51 51 51 50 49 49 48 47 45 44 45 45
49 50 50 50 50 51 51 51 50 50 50 50 50 50 50 49 48 47 47 46 46 46 47 47 48 48 48 48 48 49 49 49 49 48 48 48 47 46 45 44 45 45
49 50 50 50 50 50 50 50 49 49 49 49 49 49 48 47 46 45 46 46 46 46 47 46 46 46 45 46 46 47 47 48 47 47 46 46 45 45 44 45 45 45
49 49 49 49 49 50 49 49 49 49 49 48 48 48 47 46 45 46 46 46 46 47 46 45 44 44 44 45 46 47 47 47 47 46 45 44 44 44 45 45 45 45
49 48 48 49 49 49 50 49 49 49 49 48 48 48 47 46 46 47 47 47 47 47 46 45 44 44 45 46 47 48 48 48 48 46 45 44 44 44 45 45 45 45
47 47 48 49 49 50 50 50 49 49 49 49 49 48 48 47 48 48 48 48 48 47 46 46 46 46 46 46 47 48 48 48 47 46 45 44 44 44 44 45 45 45
47 47 48 49 50 51 51 50 50 50 50 50 49 49 48 49 49 49 48 49 48 48 48 47 47 47 47 47 47 47 47 47 47 46 45 44 44 44 44 44 44 44
47 47 48 49 51 52 51 51 51 51 51 50 49 49 50 51 51 50 50 50 50 49 49 49 49 49 48 48 48 47 46 46 46 46 45 44 44 44 44 44 44 44
47 48 49 50 51 52 52 51 51 51 51 51 51 51 52 52 52 51 51 51 51 51 51 51 51 50 50 50 50 49 48 47 46 46 46 45 45 45 44 44 44 44
47 48 49 50 51 52 52 52 52 52 52 52 53 53 53 53 52 52 52 52 52 53 53 53 53 52 52 52 51 51 50 49 48 47 47 47 46 46 45 44 44 44
48 49 50 51 52 53 53 53 53 53 54 54 54 53 53 53 53 52 53 53 54 54 54 54 54 53 53 53 53 53 52 51 50 49 49 49 48 47 46 45 44 44
48 49 50 52 53 53 54 54 54 54 54 54 54 54 54 54 54 55 55 56 56 56 55 55 54 54 54 54 54 54 54 53 52 51 51 50 49 48 47 46 45 44
49 50 51 52 53 53 54 54 54 54 55 55 55 55 56 56 57 57 57 57 57 57 56 56 55 55 55 55 56 56 56 55 54 54 53 52 51 50 49 48 46 45
52 52 53 53 53 53 54 54 55 55 56 56 57 57 57 57 58 58 58 58 58 57 56 56 56 57 57 56 57 57 58 57 56 56 55 54 53 52 50 49 47 46
55 56 55 55 54 54 55 56 57 57 57 57 57 58 58 58 58 59 58 58 58 58 58 58 58 58 58 58 58 58 59 58 57 57 56 56 54 53 52 50 48 46
57 57 56 55 55 55 56 58 58 58 58 58 58 58 59 59 59 59 59 60 61 61 61 61 60 60 60 60 61 60 60 60 59 57 56 56 55 54 52 51 50 48
55 55 55 54 54 56 57 58 58 58 59 59 59 60 60 60 60 61 62 63 64 64 64 63 63 62 62 62 61 61 61 61 60 58 57 55 54 53 52 52 51 49
52 52 52 52 54 57 58 58 58 59 59 60 61 61 61 61 62 64 65 66 67 67 66 66 65 65 65 63 62 61 61 60 60 60 58 56 54 53 53 52 51 50
51 51 51 52 54 56 56 56 57 58 59 60 61 62 63 64 66 67 68 68 69 69 69 68 68 68 67 65 64 63 62 61 60 60 59 58 56 54 53 52 52 51
52 53 53 55 55 55 56 56 58 59 60 62 63 64 66 67 68 69 70 71 71 71 71 71 71 70 68 67 65 64 63 62 61 60 59 59 58 56 55 54 53 52
53 54 56 57 57 57 58 59 60 61 62 64 65 66 68 69 70 71 71 72 73 73 73 72 72 71 70 68 67 65 64 63 62 60 60 59 58 58 57 56 55 54
54 55 57 57 58 58 59 60 61 62 63 65 66 67 69 70 71 72 73 74 74 74 74 73 73 72 71 70 68 67 65 64 62 61 61 60 59 58 58 58 58 56
55 56 57 57 58 59 60 61 62 63 64 66 67 68 70 71 73 74 75 75 75 75 75 75 74 73 72 71 69 68 66 65 64 63 62 61 60 59 59 59 59 58
57 58 58 59 60 61 62 63 64 65 66 67 69 70 71 73 74 75 76 76 76 77 76 76 75 75 73 72 71 70 68 67 66 65 64 63 62 61 60 60 60 60

ECMWFNIL_250_spd_111.txt.gz
Wind_Speed
49 50 50 50 50 50 51 51 51 51 51 51 51 51 50 50 49 49 48 48 48 48 49 49 49 49 49 48 47 46 45 44 44 44 44 45 45 45 45 45 45 44
48 49 49 50 50 50 50 51 51 51 51 52 52 51 51 50 49 49 48 48 48 48 48 48 48 48 47 46 46 46 45 45 44 44 44 44 44 44 44 44 44 44
48 48 49 49 49 49 50 50 51 51 51 52 52 51 51 50 50 49 49 48 48 47 47 47 47 46 45 45 45 46 46 45 45 45 44 44 43 43 43 44 44 45
47 47 48 48 48 49 49 50 51 51 52 52 51 51 50 50 50 49 48 47 47 46 46 46 46 45 45 45 46 46 46 46 46 45 45 44 43 43 44 45 45 45
46 46 46 47 48 48 49 50 50 51 51 51 50 50 50 49 49 48 47 47 47 47 47 46 46 46 45 46 46 46 46 47 47 46 46 46 45 45 45 45 45 46
46 46 46 47 47 47 48 48 49 49 49 49 49 49 49 48 48 47 47 47 47 47 47 47 47 47 47 47 47 47 47 47 47 47 47 47 47 46 45 45 45 45
45 46 46 46 46 47 47 47 47 48 48 49 49 49 49 48 48 47 47 47 47 47 47 48 49 48 48 49 49 48 48 48 48 48 49 48 48 48 47 46 45 45
45 45 46 46 46 46 47 47 48 48 49 49 50 50 50 49 48 48 48 48 48 48 49 50 49 49 50 51 51 50 50 50 49 50 50 50 50 50 49 48 47 46
44 45 46 47 47 47 47 48 48 49 50 50 50 50 50 49 49 48 49 49 49 50 50 50 50 51 52 52 52 52 52 51 50 50 51 52 52 52 51 50 49 48
42 44 46 47 48 48 48 48 48 49 50 50 51 51 50 50 49 49 50 50 50 50 51 51 52 53 53 53 52 52 52 52 52 52 53 53 54 53 53 52 50 49
41 43 44 46 48 49 49 49 49 50 50 51 51 51 51 51 50 51 51 51 51 52 52 53 53 53 53 53 53 53 54 54 54 54 54 54 54 54 53 52 51 50
44 45 46 47 48 49 50 50 51 52 52 53 53 53 52 52 52 52 52 52 52 53 53 53 53 54 54 55 55 56 56 55 55 55 55 55 54 54 53 52 51 50
51 51 50 49 49 49 50 52 54 55 55 56 56 55 55 54 53 53 53 53 53 53 54 54 55 56 56 57 58 58 57 56 56 55 54 53 53 53 53 52 52 52
58 57 55 53 52 52 53 54 56 58 58 58 58 57 56 55 55 55 55 55 55 55 55 56 57 58 58 59 59 58 58 57 55 54 54 54 54 54 54 53 53 52
61 60 58 57 56 56 57 58 60 60 60 60 59 58 57 56 57 57 57 57 57 57 58 58 59 59 59 59 59 59 58 57 55 55 56 56 56 56 56 55 55 54
61 60 60 60 60 61 61 61 62 61 61 61 60 60 59 59 60 60 60 60 60 60 60 60 60 60 59 59 58 59 58 58 59 59 60 60 59 58 57 57 57 56
60 60 61 61 62 63 63 63 62 62 62 62 61 61 60 60 61 62 62 62 61 61 61 61 60 60 59 58 58 59 60 62 63 64 63 62 61 60 59 58 58 58
61 61 62 62 63 64 63 63 62 62 62 62 61 61 60 60 61 62 62 61 61 61 60 60 60 59 59 60 61 63 64 66 66 66 66 64 62 62 61 60 59 58
63 63 63 63 64 64 63 63 62 62 61 60 60 60 60 61 61 61 60 60 60 60 60 60 60 61 63 64 65 67 67 68 68 67 66 65 64 63 63 62 61 59
65 64 64 64 64 64 63 63 62 61 60 60 59 60 60 61 61 60 59 59 60 61 61 62 64 65 66 67 68 68 68 68 68 67 67 66 66 65 64 63 62 60
65 65 64 64 63 63 62 62 61 60 60 60 60 60 60 60 60 60 60 60 61 62 63 64 66 66 67 68 68 69 69 69 69 69 69 69 68 67 65 64 63 61
66 65 63 62 62 62 61 60 60 59 59 59 59 59 60 60 60 61 61 62 63 64 65 66 67 67 68 69 70 70 71 71 71 71 71 71 70 68 66 65 62 60
65 64 62 62 61 61 60 59 59 58 58 58 58 59 60 61 62 63 63 64 65 66 66 67 68 69 70 71 72 72 73 73 73 73 73 72 71 70 68 66 64 62
63 62 61 61 60 60 60 60 59 59 59 59 60 62 63 64 65 65 66 67 67 68 68 69 70 71 72 73 74 74 74 74 74 74 73 73 72 71 70 69 67 66
61 60 60 60 61 61 61 61 61 61 62 63 63 64 65 66 67 67 68 68 69 69 70 71 72 73 74 75 75 76 76 76 75 74 74 74 73 73 73 73 72 70
59 60 60 61 62 63 63 63 63 64 64 65 66 67 68 69 69 69 68 69 69 70 71 73 74 75 76 76 77 77 77 76 76 76 76 76 75 74 73 73 71 69

ECMWFNIL_250_spd_114.txt.gz
Wind_Speed
43 44 44 45 44 44 44 44 43 43 44 45 45 45 45 45 46 46 46 45 45 45 45 44 44 44 44 44 43 43 43 42 42 42 42 41 41 41 41 42 42 42
42 42 43 43 44 44 44 44 44 44 45 45 46 46 45 45 46 46 46 45 45 45 44 44 44 44 44 43 43 42 42 42 42 42 42 42 43 42 42 42 43 43
39 40 40 41 42 43 44 44 45 45 45 45 46 46 46 45 46 46 46 45 44 44 44 44 44 43 43 43 42 42 43 43 43 43 43 44 44 44 44 44 44 43
36 36 37 38 39 40 41 43 43 44 45 45 45 45 45 46 46 47 46 46 45 45 45 44 44 43 43 43 43 43 43 44 44 44 45 46 46 46 46 46 45 45
35 35 35 35 36 37 39 40 41 42 43 43 44 44 45 46 46 47 47 47 47 47 46 45 45 44 44 44 44 44 45 45 45 46 47 48 48 48 48 48 47 47
34 34 34 34 34 35 36 37 38 40 40 41 42 43 44 45 46 47 48 48 48 47 47 47 46 46 46 46 46 46 47 47 48 48 49 50 50 49 49 49 49 48
33 33 32 32 33 33 34 35 36 37 38 39 40 41 42 44 45 47 48 48 49 49 49 48 48 48 48 48 48 49 49 50 50 50 51 51 51 51 51 51 50 49
34 33 31 32 32 33 33 34 34 35 36 38 39 41 42 43 44 46 47 48 49 50 50 50 50 50 50 50 51 51 51 51 52 52 52 53 53 53 53 51 51 50
36 35 34 35 36 36 36 36 37 38 39 41 43 44 45 46 46 47 48 48 49 50 51 52 53 53 53 53 53 53 53 53 53 54 54 55 55 54 54 53 52 51
38 38 39 40 41 42 41 41 42 43 45 47 49 50 51 51 51 52 52 52 52 52 53 54 55 55 55 55 55 55 55 55 55 56 56 56 56 56 55 55 54 54
41 42 44 45 47 47 47 47 48 49 51 53 55 56 56 57 57 56 55 55 55 55 55 56 56 56 56 57 57 57 57 57 58 58 58 58 57 57 57 57 56 56
45 46 47 49 50 51 52 52 53 54 56 57 58 59 60 60 59 57 56 56 56 56 57 57 57 57 57 58 58 59 59 59 60 60 60 60 59 59 59 59 58 57
49 50 51 51 53 54 55 56 57 58 59 59 60 60 60 60 59 58 57 57 57 57 57 58 58 59 59 59 60 61 61 61 61 62 62 61 60 60 60 60 59 58
50 51 52 53 55 57 58 59 59 59 59 60 61 61 61 61 61 61 60 60 59 59 59 60 60 60 60 61 61 62 62 62 62 63 63 62 61 61 61 60 59 59
49 51 53 55 57 59 59 59 59 59 60 61 62 62 63 63 63 63 63 63 62 61 61 61 61 60 60 61 61 61 61 61 61 62 62 62 61 60 60 60 59 59
49 51 53 56 58 60 60 59 59 60 62 63 64 64 64 65 65 65 65 66 65 64 63 62 61 60 60 60 60 60 59 59 60 60 61 61 61 61 61 62 62 63
50 52 54 57 59 60 60 60 61 62 64 65 65 66 66 66 67 67 67 67 65 64 63 62 61 61 61 60 60 59 59 59 60 61 61 62 63 63 64 65 65 66
56 57 59 60 61 61 61 62 63 64 65 66 67 67 68 68 68 68 67 66 65 64 63 62 61 62 62 62 61 61 60 60 61 62 63 64 65 65 66 67 67 68
61 62 62 62 63 63 64 65 66 67 68 69 69 70 70 69 69 68 67 65 64 64 63 63 62 62 62 62 62 63 63 63 63 64 65 66 67 68 68 69 69 69
62 63 63 64 65 66 67 68 69 70 71 71 71 71 70 70 69 67 65 64 64 64 64 64 64 64 64 64 64 65 66 67 67 68 69 69 70 70 71 71 71 71
62 64 65 67 68 69 70 70 71 72 72 72 72 71 70 69 67 65 64 64 64 65 66 66 66 67 67 68 68 69 70 70 71 71 71 72 72 71 72 72 72 72
64 66 67 68 69 70 71 72 72 72 72 72 71 69 68 66 65 64 64 65 65 66 67 68 69 70 70 71 72 72 73 73 73 73 72 72 72 71 72 72 72 73
67 68 70 70 71 72 72 72 73 72 72 70 68 66 65 64 64 64 65 66 66 68 69 70 71 71 72 73 74 74 75 74 73 72 71 71 71 71 72 72 72 72
69 70 71 72 72 72 72 72 71 70 67 65 63 62 62 62 63 64 65 66 68 69 70 71 71 72 73 74 75 74 73 72 71 70 70 70 71 71 72 72 72 73
71 71 72 72 72 72 72 70 67 65 63 61 60 59 60 61 63 64 66 68 69 70 71 71 72 73 74 75 74 73 71 70 70 70 71 71 71 72 72 73 74 75
72 72 72 72 71 70 68 66 64 62 61 59 58 58 60 61 63 65 67 68 69 70 71 72 73 75 75 74 73 72 72 72 72 72 72 73 73 74 75 75 74 73

ECMWFNIL_250_spd_117.txt.gz
Wind_Speed
47 45 44 43 42 41 40 40 40 40 41 41 41 41 41 41 40 40 41 41 41 41 40 40 40 40 40 40 40 41 41 42 42 42 42 42 42 42 42 42 41 41
45 45 44 44 43 43 43 43 43 43 42 41 40 40 39 38 38 38 38 39 38 37 37 36 36 36 37 38 39 40 41 41 42 43 43 43 43 44 44 44 44 43
45 46 46 46 46 45 45 45 45 44 42 41 40 39 38 37 36 36 36 36 34 32 30 30 31 32 35 37 38 39 40 40 41 43 44 45 45 46 46 46 46 46
47 47 47 47 46 45 44 44 43 42 41 40 39 38 37 37 36 35 34 31 28 27 28 30 32 36 39 41 42 42 42 42 43 43 44 45 46 47 47 48 48 48
47 46 46 45 43 42 42 41 40 40 39 39 38 38 38 37 36 34 31 28 27 29 33 36 41 44 46 46 45 45 45 45 46 46 46 47 48 48 48 49 49 50
45 44 43 42 40 40 39 39 39 38 39 39 39 39 39 38 37 34 31 31 34 38 42 46 49 51 50 50 49 48 48 49 49 49 49 49 49 50 50 50 51 51
42 41 40 39 38 38 38 38 38 39 40 40 41 41 41 40 40 39 39 42 45 48 51 54 55 54 53 53 52 51 51 52 52 51 51 51 51 52 52 52 52 52
41 39 38 37 37 37 37 38 39 40 41 42 43 43 44 45 46 48 50 52 54 56 58 58 57 56 55 55 55 55 55 54 54 53 53 53 53 53 53 53 53 53
39 39 37 37 37 38 39 40 41 42 43 43 44 45 47 49 51 53 55 57 59 60 60 59 58 57 57 57 58 58 58 57 56 56 55 55 54 54 54 54 54 54
37 37 38 38 39 40 41 42 43 44 45 46 46 48 49 50 52 54 57 59 61 61 61 60 59 59 59 60 61 61 60 59 58 57 57 56 55 55 54 54 54 54
37 38 39 40 41 42 44 45 46 46 48 49 50 51 52 53 54 57 59 61 62 62 62 61 62 62 62 63 63 62 62 61 59 58 58 57 55 54 54 54 53 53
42 43 43 45 46 46 47 47 47 48 50 52 53 54 55 56 58 60 61 62 62 63 63 64 64 65 65 65 65 64 63 62 60 59 58 58 56 54 54 54 54 53
47 47 48 48 49 49 49 48 49 50 51 52 54 55 57 58 59 61 62 62 63 64 65 66 66 66 66 66 66 66 64 62 61 60 59 59 57 56 56 56 56 56
46 46 48 49 50 49 49 48 48 49 51 52 53 55 56 57 59 61 62 63 64 65 66 67 68 68 68 68 67 66 64 63 62 61 60 60 58 57 57 57 58 58
47 48 49 48 46 45 46 47 48 50 51 52 54 55 57 59 61 63 64 65 66 67 68 69 70 70 70 69 68 66 65 63 62 61 61 60 59 59 59 59 60 61
50 49 46 44 43 44 47 49 51 53 54 55 57 59 62 63 65 66 67 67 68 68 69 70 71 71 70 69 68 66 65 63 62 62 62 61 61 61 62 63 63 64
51 48 46 46 47 49 51 53 55 57 58 60 62 64 66 68 69 69 69 69 69 70 70 71 71 70 69 69 67 65 64 63 62 63 63 63 64 64 65 67 68 69
52 51 52 53 53 54 56 58 60 61 62 65 67 68 70 70 70 70 70 70 71 71 71 71 70 69 68 67 65 64 63 63 63 64 64 65 66 67 69 70 71 72
52 53 54 56 57 58 60 61 63 64 66 68 69 70 71 71 71 71 72 72 72 72 72 71 69 68 66 64 64 63 63 64 64 64 65 67 68 70 72 73 74 75
55 56 58 60 62 64 65 66 67 69 70 71 71 72 72 72 72 73 73 73 73 72 71 70 67 65 64 63 63 63 63 64 65 66 67 69 71 73 74 75 75 76
61 63 64 66 67 68 69 70 71 72 72 72 72 72 72 72 73 73 73 73 73 72 70 68 66 64 62 62 61 62 63 64 66 68 70 72 73 74 75 75 76 76
64 65 66 67 68 69 70 71 72 72 72 72 71 71 71 72 73 73 73 73 72 71 68 66 63 61 60 60 61 62 64 67 69 71 72 73 74 75 75 75 75 73
64 65 66 67 69 70 70 71 71 70 70 70 70 71 71 72 73 74 73 72 70 68 65 62 59 59 59 60 62 64 67 69 71 72 73 74 75 75 75 74 72 70
66 67 69 70 70 70 69 69 69 69 70 70 71 72 72 73 74 73 72 69 67 64 61 59 58 59 60 63 65 67 69 71 72 73 74 75 76 75 73 72 71 70
70 71 72 72 71 69 68 69 70 70 71 72 73 73 74 74 73 71 68 65 63 60 59 58 60 62 64 66 68 70 71 73 74 76 77 77 75 74 72 71 71 72
72 72 71 70 70 69 68 70 72 72 73 74 74 75 75 73 71 68 65 62 60 59 59 61 63 65 67 69 71 72 74 76 77 78 78 77 75 74 73 73 74 74